Wind_Speed
9 10 12 13 14 15 16 18 19 20 21 23 24 25 27 28 31 34 36 38 40 41 41 41 41 41 40 39 38 37 37 36 35 33 31 29 27 24 23 22 23 24 26
9 10 11 12 13 14 16 17 19 20 22 23 25 26 27 28 29 30 32 35 37 40 42 44 45 45 45 45 44 43 41 40 39 38 36 34 31 29 26 25 24 25 26
11 11 12 13 15 17 19 21 23 24 26 28 30 31 32 33 33 34 34 35 37 38 40 42 44 46 48 49 49 48 47 45 43 42 41 39 36 33 31 29 27 27 27
12 14 16 18 20 22 24 26 28 30 32 34 36 38 39 40 41 41 41 42 42 42 42 43 44 45 47 49 51 52 52 51 49 47 45 43 41 38 35 33 31 30 29
16 19 21 24 26 28 30 33 35 37 39 40 42 44 46 47 48 49 49 50 50 49 49 48 48 47 48 48 50 53 55 55 54 52 50 48 46 43 40 38 36 34 32
21 24 27 29 32 34 36 38 41 43 45 47 49 50 52 54 55 56 57 58 58 57 57 56 55 54 53 52 52 52 54 56 58 57 55 53 50 48 45 42 40 38 36
27 29 32 35 37 40 42 44 47 49 51 53 55 57 59 61 63 64 65 66 66 66 65 64 63 62 61 59 58 56 55 55 57 59 59 58 55 53 50 47 44 43 41
32 34 37 39 42 44 47 49 52 54 57 59 62 64 66 68 70 72 73 74 74 74 74 72 71 69 68 66 64 63 61 58 57 59 61 61 60 58 55 52 49 47 46
36 38 40 43 45 48 51 54 56 59 62 65 68 70 73 75 77 78 79 80 81 81 81 80 79 77 75 72 71 69 67 65 62 60 61 62 63 62 60 57 54 52 50
38 41 44 46 49 52 55 59 62 64 67 70 72 75 77 79 80 82 83 84 84 85 85 84 83 82 80 78 76 75 73 71 69 66 64 63 64 65 64 62 59 57 54
41 44 47 50 53 56 59 62 65 68 71 74 76 77 79 80 82 83 85 86 87 88 88 89 88 87 86 84 82 80 78 76 74 72 70 67 66 66 66 65 64 62 59
44 47 50 53 56 59 62 65 68 71 74 76 78 79 81 83 85 87 88 90 92 93 94 95 95 94 93 91 88 85 83 81 79 77 75 73 71 69 68 68 67 66 64
47 50 53 56 59 62 65 68 71 74 76 79 81 82 84 86 88 91 92 93 94 95 96 98 99 99 99 98 95 92 89 86 84 82 80 79 77 74 71 70 69 68 67
50 53 56 59 63 66 69 72 74 77 79 81 84 86 88 90 92 93 94 93 91 91 91 91 92 94 97 99 99 97 95 92 89 87 85 84 82 79 76 74 72 70 69
53 56 59 62 66 69 72 75 78 81 83 86 89 91 93 93 93 91 89 87 85 84 83 82 83 84 86 89 93 95 95 95 93 91 89 89 87 85 82 79 76 73 71
55 58 61 65 68 71 75 78 81 85 87 90 93 93 93 91 89 86 84 82 80 78 77 75 75 75 77 79 82 86 90 91 92 93 93 93 92 90 88 84 81 77 75
56 60 63 67 71 75 78 82 85 88 90 92 93 92 90 87 84 82 80 77 74 71 69 67 66 67 68 71 74 78 82 85 88 91 93 95 96 95 93 90 86 82 78
58 62 66 70 74 77 81 85 88 90 92 92 90 88 85 83 81 78 74 70 66 62 59 57 55 56 58 62 67 71 76 80 84 89 93 96 98 99 97 95 91 87 82
60 64 68 72 77 80 83 87 89 91 91 88 86 84 82 80 77 73 68 63 58 54 52 50 49 49 49 53 58 64 70 75 80 86 92 97 100 102 101 99 96 92 87
63 67 71 75 79 82 85 87 89 89 87 85 83 82 81 78 73 68 62 58 54 52 51 51 50 49 48 48 50 54 62 70 77 83 90 97 102 105 104 103 100 96 92
66 70 74 77 80 83 85 87 88 86 84 82 81 80 78 74 69 64 60 57 56 55 55 55 54 52 51 50 48 48 52 62 72 79 86 95 102 106 107 106 104 100 96
68 72 76 79 81 84 86 88 87 84 82 81 80 78 74 70 65 62 60 60 60 60 60 60 60 57 54 53 51 48 48 53 64 74 82 90 98 105 108 109 107 104 100
70 73 77 79 82 85 87 87 84 81 80 79 77 74 70 66 64 63 63 64 65 66 66 66 65 62 58 56 55 51 48 49 55 66 77 85 93 100 106 110 109 107 103
71 74 77 80 83 86 87 85 82 80 79 78 76 72 67 65 65 66 67 69 70 71 71 70 68 66 62 58 56 54 51 48 51 58 69 79 87 93 101 107 109 109 106
72 75 77 81 83 85 85 83 80 79 79 77 74 69 66 65 67 69 71 73 73 72 71 69 67 65 63 59 56 53 52 49 48 53 61 72 81 88 93 101 107 109 108
72 75 78 81 83 84 82 80 79 78 77 75 72 68 66 67 69 72 73 72 68 64 61 60 59 58 58 56 53 51 50 49 49 49 55 64 75 82 87 93 101 106 108
Wind_Direction
307 308 310 314 315 314 312 310 309 307 305 303 300 296 292 287 282 279 276 273 270 268 266 264 263 262 261 260 258 257 257 257 258 258 258 257 254 250 245 239 236 234 231
353 348 342 336 329 324 320 316 313 310 307 304 301 299 296 293 290 286 282 279 275 272 270 267 265 262 261 259 258 257 256 255 255 255 256 255 254 251 247 241 236 233 231
360 349 340 331 325 319 314 310 307 305 303 301 299 297 295 293 290 288 285 282 279 276 274 271 268 265 262 260 258 256 256 255 253 253 253 254 253 251 248 244 238 233 231
345 334 327 321 316 313 310 307 305 303 301 299 298 296 294 292 290 287 285 282 280 277 275 273 270 268 265 262 259 256 255 253 253 252 251 252 252 250 248 245 240 235 232
328 322 318 315 312 310 308 307 305 303 301 299 297 295 294 292 290 288 285 283 280 278 275 273 270 268 266 264 261 258 255 253 251 250 250 249 249 249 247 244 241 237 233
319 316 314 312 311 310 308 307 305 304 302 300 298 296 294 292 290 288 286 284 282 279 276 274 271 268 266 264 262 260 257 254 251 249 248 247 247 247 246 244 241 238 235
317 315 314 313 312 311 310 308 306 305 303 301 299 297 295 292 290 288 286 284 282 280 278 275 272 269 266 263 261 259 257 255 252 250 248 246 245 244 244 243 241 238 236
317 316 316 315 314 312 311 309 307 305 303 302 300 298 296 294 292 290 288 286 283 281 278 276 273 270 267 264 261 259 256 255 253 251 248 246 244 242 241 241 239 237 235
318 318 317 316 314 312 311 310 308 307 305 303 301 299 297 295 293 290 288 286 284 281 278 276 273 270 267 264 261 258 255 253 251 250 248 246 244 242 240 239 238 236 234
319 318 317 316 315 314 313 311 309 307 306 304 301 299 297 295 292 290 288 285 283 280 278 275 272 270 267 263 260 257 254 252 249 247 246 245 244 242 239 238 236 235 234
320 319 318 317 316 314 312 310 309 307 305 304 301 299 297 294 292 290 287 285 282 279 276 274 271 268 265 262 259 256 252 250 247 245 243 243 242 241 239 237 236 234 233
321 320 318 316 314 312 311 310 309 307 305 303 301 299 297 295 292 290 288 285 282 280 277 274 270 267 264 261 258 255 251 248 245 243 241 240 239 238 238 236 235 234 232
321 319 316 315 314 313 312 311 310 308 306 304 302 300 298 296 294 292 290 287 285 282 279 276 273 269 265 262 258 255 251 247 243 241 239 237 236 235 235 234 233 233 232
319 317 316 316 316 315 314 312 311 309 307 306 304 303 301 299 297 295 293 291 288 285 281 278 274 271 267 264 260 256 252 248 243 239 237 235 233 232 232 232 231 231 231
318 317 317 318 317 316 315 314 313 312 311 310 308 307 305 303 301 299 296 293 290 287 283 279 274 270 266 263 260 256 252 248 244 239 235 233 231 230 229 229 229 229 229
319 319 319 320 319 318 317 316 316 315 314 313 311 309 308 306 304 302 299 297 294 291 287 282 277 271 265 260 256 253 250 246 242 239 234 231 229 228 227 226 226 226 226
320 321 322 322 321 320 320 319 318 317 316 314 313 312 310 309 307 305 303 300 297 293 289 285 280 274 267 260 254 250 247 242 238 235 232 229 227 226 226 225 224 224 223
322 323 324 324 323 323 322 321 320 319 317 316 315 314 313 311 309 307 305 302 298 294 291 287 283 278 270 262 255 248 244 240 235 231 228 226 225 224 224 223 222 222 221
325 326 326 326 325 325 324 323 322 320 319 319 318 316 315 313 311 309 305 302 298 294 291 288 286 282 276 268 258 249 243 238 234 229 225 222 222 222 222 222 221 220 219
328 328 328 328 327 327 325 324 323 322 322 321 320 319 317 315 312 309 305 301 296 293 290 288 286 285 282 275 265 254 245 238 233 229 225 221 219 219 219 220 220 219 218
330 330 330 329 329 327 326 325 324 324 323 322 322 321 319 317 313 309 305 300 295 292 289 287 284 282 281 279 273 261 250 241 234 229 225 222 219 217 217 218 218 218 217
332 332 331 330 329 328 327 326 326 326 326 325 324 323 321 317 314 309 305 300 295 291 288 285 282 280 277 276 274 267 255 245 237 230 226 223 220 217 215 216 216 216 216
334 333 332 331 330 329 328 328 328 328 327 327 326 325 322 319 315 311 306 302 297 292 287 283 279 276 273 271 271 268 260 247 239 233 227 224 221 218 216 214 214 215 215
335 334 333 332 331 331 330 330 330 330 330 330 329 328 325 322 318 314 310 305 299 294 288 282 277 273 269 266 264 264 260 252 240 232 229 225 222 220 217 215 213 213 213
335 334 334 333 333 332 332 332 333 333 333 333 332 331 328 326 322 318 314 309 303 296 290 282 276 270 265 261 258 257 256 253 245 233 227 226 222 220 219 216 213 212 212
336 335 335 335 334 334 334 334 334 335 335 335 335 334 332 330 328 325 321 316 311 304 295 285 275 267 261 255 252 250 249 249 246 236 226 224 222 220 219 217 214 212 211
Height
5867 5866 5866 5865 5864 5863 5863 5862 5861 5860 5859 5858 5857 5856 5855 5854 5854 5853 5853 5852 5852 5851 5851 5852 5852 5852 5853 5854 5854 5855 5855 5856 5856 5857 5858 5859 5860 5861 5862 5864 5865 5867 5868
5865 5864 5864 5863 5862 5861 5860 5859 5857 5856 5855 5854 5852 5851 5850 5848 5847 5847 5846 5845 5844 5844 5843 5843 5844 5844 5845 5846 5847 5848 5849 5850 5850 5851 5853 5854 5855 5856 5858 5859 5861 5862 5864
5864 5863 5862 5861 5860 5858 5857 5855 5854 5852 5850 5849 5847 5845 5844 5842 5840 5839 5838 5837 5836 5836 5835 5835 5835 5835 5836 5836 5837 5839 5840 5842 5843 5844 5846 5848 5849 5851 5853 5854 5856 5857 5859
5862 5861 5860 5858 5857 5855 5853 5851 5849 5847 5845 5843 5841 5838 5836 5834 5832 5831 5830 5828 5827 5827 5826 5826 5826 5825 5825 5826 5827 5828 5830 5832 5834 5836 5838 5840 5842 5845 5847 5848 5850 5852 5854
5861 5859 5857 5855 5853 5851 5849 5846 5844 5841 5838 5836 5833 5830 5827 5824 5822 5821 5819 5817 5816 5816 5816 5815 5815 5815 5815 5815 5816 5817 5819 5821 5824 5826 5829 5832 5834 5837 5840 5842 5844 5846 5848
5859 5857 5854 5851 5848 5846 5843 5839 5836 5833 5830 5826 5823 5820 5817 5813 5811 5808 5806 5804 5803 5802 5802 5802 5802 5803 5803 5804 5804 5805 5807 5809 5812 5815 5818 5821 5825 5828 5831 5834 5837 5839 5842
5855 5853 5849 5846 5842 5838 5835 5831 5827 5823 5819 5815 5811 5807 5804 5800 5797 5794 5791 5789 5787 5786 5785 5785 5786 5787 5788 5790 5791 5792 5794 5796 5799 5802 5805 5809 5813 5817 5821 5825 5828 5831 5834
5851 5847 5843 5839 5835 5831 5826 5822 5818 5813 5808 5803 5799 5794 5789 5784 5780 5776 5773 5770 5768 5767 5766 5766 5766 5768 5770 5772 5774 5777 5779 5782 5785 5789 5792 5796 5800 5805 5809 5814 5818 5821 5825
5845 5841 5837 5832 5828 5823 5818 5812 5807 5801 5796 5790 5784 5779 5773 5767 5762 5757 5753 5750 5747 5745 5744 5743 5744 5746 5749 5751 5754 5758 5762 5766 5770 5774 5777 5781 5785 5790 5796 5801 5806 5811 5815
5839 5835 5830 5825 5819 5813 5807 5801 5795 5789 5782 5776 5769 5763 5756 5749 5743 5737 5732 5727 5724 5721 5719 5718 5718 5720 5724 5727 5731 5735 5741 5747 5752 5757 5761 5766 5770 5775 5781 5788 5793 5799 5804
5834 5828 5822 5816 5810 5804 5797 5791 5783 5776 5768 5761 5753 5745 5737 5730 5723 5716 5709 5703 5698 5695 5692 5691 5691 5693 5696 5701 5705 5710 5717 5724 5731 5737 5743 5748 5754 5759 5765 5772 5779 5785 5791
5826 5820 5814 5808 5802 5795 5787 5779 5771 5762 5753 5744 5735 5726 5717 5708 5700 5692 5684 5677 5671 5666 5663 5661 5661 5663 5666 5671 5676 5683 5690 5698 5707 5714 5722 5729 5735 5742 5749 5756 5764 5771 5778
5819 5813 5806 5799 5792 5784 5775 5766 5757 5747 5737 5727 5716 5706 5695 5685 5675 5665 5656 5649 5642 5636 5631 5628 5627 5629 5633 5638 5644 5652 5661 5670 5680 5689 5699 5707 5715 5724 5732 5739 5747 5755 5763
5812 5805 5797 5789 5780 5771 5762 5752 5741 5730 5719 5707 5695 5683 5672 5660 5648 5637 5627 5619 5611 5605 5600 5596 5594 5595 5597 5602 5609 5618 5628 5639 5651 5662 5674 5683 5693 5703 5712 5721 5729 5738 5747
5805 5796 5788 5779 5769 5759 5747 5736 5724 5711 5698 5685 5671 5658 5645 5632 5620 5609 5598 5589 5581 5574 5569 5566 5563 5563 5564 5568 5574 5582 5593 5605 5619 5632 5646 5657 5668 5679 5690 5700 5711 5721 5730
5796 5787 5777 5767 5756 5744 5732 5718 5705 5690 5676 5661 5647 5632 5618 5605 5593 5581 5571 5561 5553 5546 5540 5536 5534 5534 5535 5537 5542 5548 5559 5571 5585 5600 5615 5629 5642 5655 5667 5679 5690 5701 5712
5787 5777 5766 5755 5742 5729 5715 5700 5685 5670 5655 5640 5625 5609 5595 5581 5568 5557 5546 5537 5528 5521 5515 5511 5508 5506 5507 5509 5514 5519 5527 5538 5552 5566 5582 5598 5614 5628 5642 5656 5669 5682 5694
5777 5766 5754 5741 5728 5713 5698 5682 5666 5651 5635 5619 5603 5588 5573 5559 5546 5535 5524 5515 5507 5500 5494 5490 5486 5484 5482 5483 5487 5492 5499 5509 5520 5533 5549 5567 5584 5600 5616 5632 5647 5661 5675
5766 5755 5742 5728 5713 5698 5682 5665 5649 5632 5615 5598 5582 5567 5552 5538 5525 5514 5504 5495 5488 5482 5476 5472 5468 5465 5463 5462 5463 5468 5474 5482 5492 5504 5519 5536 5553 5571 5589 5607 5624 5640 5655
5756 5743 5729 5715 5699 5683 5667 5651 5633 5615 5597 5580 5563 5548 5533 5519 5506 5495 5486 5477 5470 5465 5460 5455 5451 5448 5445 5443 5443 5447 5451 5456 5465 5477 5491 5506 5522 5542 5563 5582 5600 5618 5634
5745 5731 5717 5701 5686 5671 5655 5638 5620 5602 5583 5566 5548 5531 5515 5500 5488 5477 5468 5460 5453 5448 5442 5438 5434 5431 5428 5425 5425 5428 5432 5435 5441 5453 5465 5478 5494 5514 5536 5556 5575 5595 5613
5734 5720 5704 5689 5673 5657 5640 5621 5603 5585 5567 5550 5532 5515 5498 5484 5471 5460 5451 5443 5435 5428 5423 5417 5413 5411 5410 5407 5406 5409 5414 5418 5421 5430 5440 5453 5469 5488 5509 5530 5551 5572 5592
5724 5709 5693 5678 5661 5643 5625 5606 5589 5572 5554 5537 5520 5503 5486 5470 5456 5444 5434 5423 5414 5406 5399 5394 5390 5388 5389 5389 5386 5389 5393 5399 5404 5411 5419 5431 5446 5463 5483 5505 5527 5549 5569
5714 5698 5683 5666 5648 5629 5610 5591 5574 5557 5541 5523 5505 5488 5472 5456 5441 5428 5414 5401 5388 5378 5370 5365 5362 5361 5364 5368 5368 5369 5373 5378 5385 5394 5401 5411 5425 5442 5459 5480 5503 5526 5547
5704 5688 5672 5654 5635 5616 5597 5579 5561 5544 5526 5508 5491 5475 5460 5444 5427 5410 5394 5376 5360 5347 5337 5331 5330 5331 5335 5342 5348 5351 5355 5360 5366 5375 5385 5394 5407 5422 5438 5457 5479 5502 5524
5695 5678 5661 5643 5624 5605 5586 5568 5550 5533 5515 5498 5481 5464 5448 5432 5413 5392 5371 5350 5331 5316 5305 5299 5298 5302 5307 5316 5325 5332 5338 5344 5350 5358 5368 5378 5389 5404 5420 5437 5458 5480 5502